GW0328 Weather Reports


time (UTC)temp
F
wind
direction
speed
knots
gust
knots
rain 1hr
in
rain 24hr
in
rain mn
in
humidity
%
barometer
mb
20260510081514 52 177 0.0 0.0 0.00 0.22 0.22 99 1007.9
20260510081010 53 171 0.9 0.9 0.00 0.22 0.22 99 1008.2
20260510080508 52 76 0.9 1.7 0.00 0.22 0.22 99 1007.6
20260510080006 52 137 0.9 0.9 0.00 0.22 0.22 99 1007.4
20260510075503 52 160 0.0 0.9 0.00 0.22 0.22 99 1007.3
20260510075000 52 165 0.0 0.0 0.00 0.22 0.22 99 1007.5
20260510074458 52 158 0.0 0.0 0.00 0.22 0.22 99 1007.2
20260510073953 52 163 0.0 0.0 0.00 0.22 0.22 99 1007.2
20260510073449 53 167 0.0 0.0 0.00 0.22 0.22 99 1007.2
20260510072945 53 159 0.0 0.0 0.00 0.22 0.22 99 1007.2
20260510072442 53 146 0.9 0.9 0.00 0.22 0.22 99 1007.1
20260510071938 53 165 0.0 0.0 0.00 0.22 0.22 99 1007.4
20260510071434 53 163 0.0 0.0 0.00 0.22 0.22 99 1007.1
20260510070933 54 155 0.0 0.9 0.00 0.22 0.22 99 1007.4
20260510070430 54 145 0.0 0.9 0.00 0.22 0.22 99 1007.1
20260510065925 54 165 0.0 0.0 0.00 0.22 0.22 99 1007.3
20260510065422 54 164 0.0 0.0 0.00 0.22 0.22 99 1007.2
20260510064918 54 176 0.0 0.0 0.00 0.22 0.22 99 1007.4
20260510064416 54 175 0.9 0.9 0.00 0.22 0.22 99 1007.2
20260510063913 54 176 0.0 0.0 0.00 0.22 0.22 99 1007.0
20260510063409 54 155 0.0 0.9 0.07 0.22 0.22 99 1007.1
20260510062907 54 176 0.0 0.0 0.12 0.22 0.22 99 1007.4
20260510062401 54 160 1.7 1.7 0.05 0.21 0.21 99 1007.9
20260510061857 55 175 0.0 0.0 0.07 0.20 0.20 99 1008.2
20260510061354 55 173 0.9 0.9 0.07 0.20 0.20 99 1008.1
20260510060849 54 239 4.3 5.2 0.00 0.19 0.19 99 1008.9
20260510060347 53 172 0.0 0.0 0.00 0.19 0.19 99 1008.0
20260510055843 53 172 0.0 0.0 0.00 0.19 0.19 99 1007.6
20260510055343 53 172 0.0 0.0 0.00 0.19 0.19 99 1007.5
20260510054842 53 172 0.0 0.0 0.00 0.19 0.19 99 1007.5
20260510054338 54 172 0.0 0.0 0.00 0.19 0.19 99 1007.6
20260510053833 54 172 0.0 0.0 0.00 0.19 0.19 99 1007.6
20260510053329 54 176 0.9 0.9 0.00 0.19 0.19 99 1007.5
20260510052825 54 163 0.0 0.0 0.00 0.19 0.19 99 1007.7
20260510052321 54 164 0.0 0.0 0.00 0.19 0.19 99 1007.5
20260510051818 55 199 1.7 1.7 0.00 0.19 0.19 99 1007.4
20260510051314 55 175 0.9 0.9 0.00 0.19 0.19 99 1007.7
20260510050811 55 264 1.7 1.7 0.07 0.19 0.19 99 1007.5
20260510050308 55 168 1.7 1.7 0.07 0.19 0.19 99 1008.1
20260510045805 55 144 0.0 0.9 0.00 0.18 0.18 99 1008.3
20260510045305 55 68 1.7 1.7 0.00 0.18 0.18 99 1008.0
20260510044759 55 141 0.9 0.9 0.12 0.18 0.18 99 1007.5
20260510044256 55 181 0.0 0.0 0.35 0.18 0.18 99 1007.2
20260510043752 55 168 0.0 0.0 0.59 0.16 0.16 99 1007.2
20260510043248 55 168 0.0 0.0 0.42 0.12 0.12 99 1007.6
20260510042746 55 171 0.9 0.9 0.12 0.06 0.06 99 1008.3
20260510042241 55 165 0.0 0.0 0.12 0.05 0.05 99 1008.1
20260510041738 55 150 0.9 0.9 0.12 0.04 0.04 99 1007.8
20260510041236 55 136 0.9 0.9 0.24 0.04 0.04 99 1008.0
20260510040733 55 106 0.9 1.7 0.12 0.02 0.02 99 1007.6
20260510040230 55 174 0.9 0.9 0.07 0.00 0.00 99 1007.7
20260510035725 55 166 0.0 0.0 0.07 0.51 0.51 99 1007.4
20260510035221 55 166 0.0 0.0 0.00 0.50 0.50 99 1007.6
20260510034717 54 167 0.0 0.0 0.00 0.50 0.50 99 1007.5
20260510034215 55 168 0.0 0.0 0.00 0.50 0.50 99 1007.3
20260510033710 55 168 0.0 0.0 0.00 0.50 0.50 99 1007.1
20260510033209 54 167 0.0 0.0 0.00 0.50 0.50 99 1007.0
20260510032705 54 167 0.0 0.0 0.00 0.50 0.50 98 1006.8
20260510032201 55 167 0.0 0.0 0.00 0.50 0.50 98 1007.0
20260510031656 55 173 0.0 0.0 0.00 0.50 0.50 98 1007.0
20260510031153 55 173 0.0 0.0 0.00 0.50 0.50 98 1007.1
20260510030652 55 173 0.0 0.9 0.00 0.50 0.50 98 1007.0
20260510030150 55 182 0.0 0.0 0.00 0.50 0.50 98 1007.1
20260510025647 55 179 0.0 0.9 0.00 0.50 0.50 98 1007.3
20260510025144 55 168 0.0 0.0 0.00 0.50 0.50 98 1007.5
20260510024641 55 167 0.0 0.0 0.00 0.50 0.50 98 1007.2
20260510024137 56 167 0.0 0.0 0.05 0.50 0.50 97 1007.5
20260510023633 56 177 0.0 0.0 0.17 0.50 0.50 97 1007.6
20260510023131 56 167 0.0 0.0 0.31 0.49 0.49 97 1007.6
20260510022631 56 180 1.7 1.7 0.38 0.47 0.47 97 1007.7
20260510022126 56 168 0.9 0.9 0.35 0.44 0.44 96 1008.3
20260510021622 56 152 0.0 0.9 0.40 0.41 0.41 96 1008.3
20260510021120 56 154 0.0 0.9 0.35 0.38 0.38 96 1008.2
20260510020619 56 142 0.9 0.9 0.19 0.34 0.34 95 1008.0
20260510020115 56 114 1.7 1.7 0.19 0.32 0.32 95 1008.1
20260510015612 56 82 2.6 4.3 0.47 0.31 0.31 94 1008.0
20260510015108 56 147 0.9 1.7 1.21 0.29 0.29 92 1008.0
20260510014604 57 136 1.7 2.6 0.90 0.24 0.24 89 1007.6
20260510014102 60 45 4.3 6.1 0.00 0.09 0.09 80 1007.5
20260510013601 62 50 2.6 2.6 0.00 0.09 0.09 74 1006.7
20260510013058 60 94 1.7 1.7 0.00 0.09 0.09 78 1005.3
20260510012557 60 158 0.0 0.9 0.00 0.09 0.09 78 1005.1
20260510012054 59 169 0.0 0.0 0.00 0.09 0.09 77 1004.8
20260510011553 59 135 0.0 0.0 0.00 0.09 0.09 77 1004.6
20260510011049 59 168 0.0 0.0 0.00 0.09 0.09 81 1004.6
20260510010546 59 142 0.9 0.9 0.00 0.09 0.09 80 1004.8
20260510010043 59 145 0.9 0.9 0.00 0.09 0.09 79 1004.9
20260510005539 60 141 0.9 0.9 0.00 0.09 0.09 78 1004.8
20260510005037 60 145 0.0 0.9 0.00 0.09 0.09 77 1004.8
20260510004534 60 156 0.0 0.0 0.00 0.09 0.09 76 1004.9
20260510004032 61 158 0.0 0.0 0.00 0.09 0.09 74 1004.7
20260510003528 61 163 0.0 0.0 0.00 0.09 0.09 73 1004.6
20260510003024 62 171 0.0 0.0 0.00 0.09 0.09 72 1004.8
20260510002519 62 169 0.0 0.0 0.00 0.09 0.09 71 1004.5
20260510002017 63 175 0.0 0.9 0.00 0.09 0.09 70 1004.5
20260510001514 63 168 0.0 0.0 0.00 0.09 0.09 69 1004.7
20260510001012 64 170 0.0 0.9 0.00 0.09 0.09 68 1004.6
20260510000513 64 164 0.9 0.9 0.00 0.09 0.09 68 1004.4
20260510000010 64 172 0.0 0.0 0.00 0.09 0.09 67 1004.5
20260509235506 64 185 0.0 0.9 0.00 0.09 0.09 68 1004.2
20260509235002 65 180 0.9 0.9 0.00 0.09 0.09 67 1004.2
20260509234459 65 107 0.9 0.9 0.00 0.09 0.09 67 1004.1
20260509233957 65 172 0.0 0.9 0.00 0.09 0.09 66 1004.2
20260509233454 66 161 0.0 0.0 0.00 0.09 0.09 65 1004.1
20260509232950 66 234 1.7 1.7 0.00 0.09 0.09 62 1003.9
20260509232448 66 176 0.9 0.9 0.00 0.09 0.09 64 1004.2
20260509231944 67 174 0.9 0.9 0.00 0.09 0.09 63 1003.8
20260509231440 67 172 3.5 5.2 0.00 0.09 0.09 59 1004.0
20260509230939 67 112 0.9 0.9 0.00 0.09 0.09 60 1004.0
20260509230435 68 177 0.0 0.9 0.00 0.09 0.09 62 1004.2
20260509225931 68 172 0.9 0.9 0.00 0.09 0.09 57 1004.2
20260509225428 69 196 1.7 1.7 0.00 0.09 0.09 58 1004.3
20260509224924 70 223 0.9 0.9 0.00 0.09 0.09 58 1004.4
20260509224419 69 177 1.7 2.6 0.00 0.09 0.09 59 1004.1
20260509223917 70 164 0.0 0.0 0.00 0.09 0.09 59 1004.0
20260509223414 70 195 0.9 0.9 0.00 0.09 0.09 57 1004.1
20260509222911 71 188 5.2 6.1 0.00 0.09 0.09 55 1004.1
20260509222406 71 183 0.0 0.0 0.00 0.09 0.09 53 1004.1
20260509221901 70 315 2.6 2.6 0.00 0.09 0.09 55 1004.2
20260509221359 70 299 1.7 1.7 0.00 0.09 0.09 58 1003.8
20260509220855 70 175 2.6 4.3 0.00 0.09 0.09 55 1003.9
20260509220350 70 189 0.9 0.9 0.00 0.09 0.09 56 1004.1
20260509215846 70 192 0.9 0.9 0.00 0.09 0.09 59 1004.0
20260509215343 70 207 3.5 4.3 0.00 0.09 0.09 55 1004.1
20260509214840 70 196 1.7 1.7 0.00 0.09 0.09 55 1004.1
20260509214337 70 134 2.6 2.6 0.00 0.09 0.09 57 1004.4
20260509213834 70 208 2.6 2.6 0.00 0.09 0.09 58 1004.2
20260509213329 71 230 3.5 4.3 0.00 0.09 0.09 54 1004.4
20260509212828 70 176 0.0 0.0 0.00 0.09 0.09 58 1004.4
20260509212325 70 247 4.3 5.2 0.00 0.09 0.09 55 1004.4
20260509211821 70 179 0.9 0.9 0.00 0.09 0.09 54 1004.3
20260509211317 69 216 2.6 4.3 0.00 0.09 0.09 55 1004.2
20260509210814 69 187 0.9 0.9 0.00 0.09 0.09 55 1004.3
20260509210312 70 170 0.9 1.7 0.00 0.09 0.09 57 1004.5
20260509205810 69 126 1.7 2.6 0.00 0.09 0.09 56 1004.4
20260509205307 68 192 4.3 6.1 0.00 0.09 0.09 57 1004.6
20260509204802 67 202 2.6 2.6 0.00 0.09 0.09 59 1004.6
20260509204258 68 179 6.1 12.2 0.00 0.09 0.09 58 1004.8
20260509203754 68 178 6.1 7.0 0.00 0.09 0.09 58 1004.9
20260509203252 68 194 2.6 2.6 0.00 0.09 0.09 57 1004.9
20260509202748 68 176 0.9 0.9 0.00 0.09 0.09 57 1005.0
20260509202244 68 182 5.2 6.1 0.00 0.09 0.09 59 1005.0
20260509201744 69 170 2.6 4.3 0.00 0.09 0.09 58 1005.1
20260509201241 70 235 4.3 6.1 0.00 0.09 0.09 56 1005.2
20260509200738 69 268 3.5 5.2 0.00 0.09 0.09 58 1005.2
20260509200238 68 178 2.6 2.6 0.00 0.09 0.09 60 1005.1
20260509195734 68 106 2.6 4.3 0.00 0.09 0.09 59 1005.0
20260509195229 67 205 2.6 2.6 0.00 0.09 0.09 62 1005.2
20260509194724 67 60 2.6 2.6 0.00 0.09 0.09 61 1005.3
20260509194220 68 153 6.1 7.8 0.00 0.09 0.09 60 1005.4
20260509193717 69 173 0.9 0.9 0.00 0.09 0.09 62 1005.5
20260509193217 69 188 1.7 1.7 0.00 0.09 0.09 61 1005.5
20260509192714 69 231 0.9 2.6 0.00 0.09 0.09 60 1005.7
20260509192209 68 167 2.6 2.6 0.00 0.09 0.09 62 1005.7
20260509191705 68 205 3.5 4.3 0.00 0.09 0.09 63 1005.6
20260509191201 68 196 2.6 4.3 0.00 0.09 0.09 62 1005.4
20260509190657 66 166 1.7 2.6 0.00 0.09 0.09 66 1005.9
20260509190155 65 204 1.7 1.7 0.00 0.09 0.09 67 1005.7
20260509185652 66 201 3.5 4.3 0.00 0.09 0.09 65 1005.9
20260509185148 66 174 4.3 4.3 0.00 0.09 0.09 65 1006.1
20260509184646 67 164 0.0 0.0 0.00 0.09 0.09 67 1006.0
20260509184142 66 200 0.9 0.9 0.00 0.09 0.09 66 1006.1
20260509183639 66 224 5.2 6.1 0.00 0.09 0.09 66 1006.0
20260509183134 66 185 1.7 2.6 0.00 0.09 0.09 68 1006.1
20260509182630 64 126 0.9 0.9 0.00 0.09 0.09 72 1006.0
20260509182127 64 228 3.5 4.3 0.00 0.09 0.09 71 1006.3
20260509181625 63 189 2.6 2.6 0.00 0.09 0.09 70 1006.4
20260509181123 64 150 5.2 7.8 0.00 0.09 0.09 69 1006.6
20260509180619 63 160 3.5 4.3 0.00 0.09 0.09 71 1006.5
20260509180116 64 175 0.0 0.9 0.00 0.09 0.09 72 1006.3
20260509175611 63 198 2.6 4.3 0.00 0.09 0.09 70 1006.3
20260509175109 63 168 2.6 4.3 0.00 0.09 0.09 71 1006.5
20260509174605 63 209 4.3 5.2 0.00 0.09 0.09 72 1006.7
20260509174100 63 217 3.5 5.2 0.00 0.09 0.09 72 1006.3
20260509173555 63 205 1.7 1.7 0.00 0.09 0.09 73 1006.6
20260509173051 61 162 0.9 1.7 0.00 0.09 0.09 73 1006.5
20260509172549 61 211 2.6 2.6 0.00 0.09 0.09 74 1006.5
20260509172044 62 138 1.7 2.6 0.00 0.09 0.09 73 1006.6
20260509171540 61 178 5.2 7.0 0.00 0.09 0.09 75 1006.6
20260509171037 61 140 1.7 1.7 0.00 0.09 0.09 76 1006.5
20260509170533 61 219 1.7 2.6 0.00 0.09 0.09 75 1006.7
20260509170029 61 181 1.7 1.7 0.00 0.09 0.09 77 1006.6
20260509165527 61 183 0.9 0.9 0.00 0.09 0.09 76 1006.5
20260509165023 60 108 1.7 1.7 0.00 0.09 0.09 77 1006.5
20260509164520 60 1 1.7 2.6 0.00 0.09 0.09 78 1006.5
20260509164016 60 155 1.7 2.6 0.00 0.09 0.09 78 1006.6
20260509163514 60 179 2.6 2.6 0.00 0.09 0.09 77 1006.5
20260509163014 60 249 2.6 2.6 0.00 0.09 0.09 79 1006.4
20260509162512 59 187 2.6 5.2 0.00 0.09 0.09 80 1006.3
20260509162008 60 165 1.7 1.7 0.00 0.09 0.09 82 1006.3
20260509161504 60 184 0.9 1.7 0.00 0.09 0.09 81 1006.2
20260509160959 59 193 1.7 1.7 0.00 0.09 0.09 82 1006.4
20260509160455 59 175 0.9 0.9 0.00 0.09 0.09 84 1006.2
20260509155956 60 210 1.7 1.7 0.00 0.09 0.09 83 1006.3
20260509155453 59 186 1.7 1.7 0.00 0.09 0.09 85 1006.1
20260509154949 59 187 1.7 1.7 0.00 0.09 0.09 85 1006.2
20260509154445 58 189 2.6 2.6 0.00 0.09 0.09 85 1006.0
20260509153943 57 217 3.5 4.3 0.00 0.09 0.09 88 1006.1
20260509153439 58 216 3.5 4.3 0.00 0.09 0.09 88 1006.0
20260509152936 57 176 0.9 0.9 0.00 0.09 0.09 90 1006.2
20260509152432 57 198 1.7 2.6 0.05 0.09 0.09 91 1006.0
20260509151929 56 202 1.7 1.7 0.05 0.09 0.09 90 1006.0
20260509151425 56 186 2.6 2.6 0.00 0.08 0.08 92 1006.1
20260509150924 55 167 0.0 0.0 0.00 0.08 0.08 95 1006.2
20260509150421 55 186 1.7 1.7 0.00 0.08 0.08 97 1006.2
20260509145919 55 178 0.9 0.9 0.00 0.08 0.08 99 1006.3
20260509145419 54 181 0.0 0.9 0.00 0.08 0.08 99 1006.2
20260509144915 54 197 1.7 1.7 0.00 0.08 0.08 99 1006.1
20260509144412 54 171 0.9 0.9 0.00 0.08 0.08 99 1006.0
20260509143909 54 164 0.0 0.0 0.00 0.08 0.08 99 1006.2
20260509143406 53 170 0.9 0.9 0.00 0.08 0.08 99 1006.6
20260509142902 53 167 0.0 0.9 0.00 0.08 0.08 99 1006.5
20260509142359 53 164 0.0 0.0 0.00 0.08 0.08 99 1006.6
20260509141854 53 170 0.0 0.0 0.00 0.08 0.08 99 1006.4
20260509141352 53 171 1.7 1.7 0.00 0.08 0.08 99 1006.4
20260509140848 53 171 0.9 0.9 0.00 0.08 0.08 99 1006.6
20260509140345 52 160 0.0 0.0 0.00 0.08 0.08 99 1006.2
20260509135843 53 167 0.0 0.0 0.00 0.08 0.08 99 1006.6
20260509135340 53 165 0.0 0.0 0.00 0.08 0.08 99 1006.5
20260509134838 52 167 0.0 0.0 0.00 0.08 0.08 99 1006.5
20260509134335 52 166 0.0 0.0 0.00 0.08 0.08 99 1006.5
20260509133831 52 164 0.0 0.0 0.00 0.08 0.08 99 1006.3
20260509133328 52 166 0.0 0.0 0.00 0.08 0.08 99 1006.4
20260509132827 52 167 0.0 0.0 0.00 0.08 0.08 99 1006.6
20260509132325 52 167 0.9 0.9 0.00 0.08 0.08 99 1006.5
20260509131822 52 163 0.0 0.0 0.00 0.08 0.08 99 1006.5
20260509131319 52 163 0.0 0.0 0.00 0.08 0.08 99 1006.6
20260509130815 51 164 0.0 0.0 0.00 0.08 0.08 99 1006.5
20260509130311 51 164 0.0 0.0 0.00 0.08 0.08 99 1006.5
20260509125807 51 164 0.0 0.0 0.00 0.08 0.08 99 1006.6
20260509125307 51 164 0.0 0.0 0.00 0.08 0.08 99 1006.8
20260509124800 51 164 0.0 0.0 0.00 0.08 0.08 99 1006.6
20260509124257 51 164 0.0 0.0 0.00 0.08 0.08 99 1006.6
20260509123755 51 159 0.0 0.0 0.00 0.08 0.08 99 1006.7
20260509123252 51 158 0.0 0.0 0.00 0.08 0.08 99 1006.6
20260509122748 51 162 0.0 0.0 0.07 0.08 0.08 99 1006.7
20260509122245 51 162 0.0 0.0 0.14 0.08 0.08 99 1006.9
20260509121742 51 162 0.0 0.0 0.19 0.08 0.08 99 1007.0
20260509121239 51 161 0.0 0.0 0.05 0.06 0.06 99 1006.9
20260509120737 51 161 0.0 0.0 0.00 0.05 0.05 99 1006.9
20260509120235 51 161 0.0 0.0 0.00 0.05 0.05 99 1007.0
20260509115733 51 164 0.0 0.0 0.07 0.05 0.05 99 1007.0
20260509115229 51 164 0.0 0.0 0.07 0.05 0.05 99 1006.8
20260509114728 51 165 0.0 0.0 0.00 0.04 0.04 99 1006.9
20260509114226 51 165 0.0 0.0 0.00 0.04 0.04 99 1007.0
20260509113724 50 165 0.0 0.0 0.00 0.04 0.04 99 1006.8
20260509113221 50 165 0.0 0.0 0.00 0.04 0.04 99 1006.7
20260509112718 50 165 0.0 0.0 0.00 0.04 0.04 99 1006.8
20260509112215 50 165 0.0 0.0 0.00 0.04 0.04 99 1006.6
20260509111712 50 165 0.0 0.0 0.00 0.04 0.04 99 1006.8
20260509111209 50 165 0.0 0.0 0.00 0.04 0.04 99 1006.7
20260509110706 50 165 0.0 0.0 0.00 0.04 0.04 99 1006.4
20260509110203 50 164 0.0 0.0 0.05 0.04 0.04 99 1006.4
20260509105701 50 164 0.0 0.0 0.05 0.04 0.04 99 1006.5
20260509105158 50 164 0.0 0.0 0.00 0.03 0.03 99 1006.6
20260509104655 49 164 0.0 0.0 0.00 0.03 0.03 99 1006.7
20260509104152 49 164 0.0 0.0 0.07 0.03 0.03 99 1006.5
20260509103650 49 164 0.0 0.0 0.07 0.03 0.03 99 1006.5
20260509103147 49 164 0.0 0.0 0.00 0.02 0.02 99 1006.6
20260509102645 49 165 0.0 0.0 0.00 0.02 0.02 99 1006.7
20260509102142 49 165 0.0 0.0 0.00 0.02 0.02 99 1006.7
20260509101638 49 165 0.0 0.0 0.00 0.02 0.02 99 1006.6
20260509101135 49 165 0.0 0.0 0.00 0.02 0.02 99 1006.6
20260509100632 49 165 0.0 0.0 0.00 0.02 0.02 99 1006.5
20260509100129 49 165 0.0 0.0 0.00 0.02 0.02 99 1006.3
20260509095626 49 165 0.0 0.0 0.00 0.02 0.02 99 1006.5
20260509095123 49 165 0.0 0.0 0.00 0.02 0.02 99 1006.7
20260509094619 49 165 0.0 0.0 0.00 0.02 0.02 99 1006.6
20260509094117 49 165 0.0 0.0 0.00 0.02 0.02 99 1006.8
20260509093615 49 165 0.0 0.0 0.00 0.02 0.02 99 1006.8
20260509093112 49 164 0.0 0.0 0.00 0.02 0.02 99 1006.4
20260509092609 49 160 0.0 0.0 0.00 0.02 0.02 99 1006.7
20260509092108 49 163 0.0 0.0 0.00 0.02 0.02 99 1006.9
20260509091606 49 163 0.0 0.0 0.00 0.02 0.02 99 1007.0
20260509091101 49 163 0.0 0.0 0.05 0.02 0.02 99 1007.0
20260509090559 49 163 0.0 0.0 0.05 0.02 0.02 99 1007.2
20260509090057 49 162 0.0 0.0 0.00 0.01 0.01 99 1007.0
20260509085554 49 162 0.0 0.0 0.00 0.01 0.01 99 1007.0
20260509085050 49 162 0.0 0.0 0.00 0.01 0.01 99 1007.3
20260509084547 49 162 0.0 0.0 0.00 0.01 0.01 99 1007.1
20260509084044 49 162 0.0 0.0 0.00 0.01 0.01 99 1007.1
20260509083542 49 161 0.0 0.0 0.00 0.01 0.01 99 1007.1
20260509083038 49 162 0.0 0.0 0.00 0.01 0.01 99 1007.2
20260509082536 49 162 0.0 0.0 0.00 0.01 0.01 99 1007.3
20260509082032 49 162 0.0 0.0 0.00 0.01 0.01 99 1007.2